Lake Pepin Weather Center

Moon Phase Calendar



Lake Pepin Water Level
Online Cameras

 


      

Current Conditions in Lake City
10/15/2021 6:38:56 PM

51°F
Feels Like 48
Clouds
Humidity
57%
Pressure
29.94"
Wind
12.7 mph (WNW)
Dew Point
36°F
UV Index
0/10 (Low)
Visibility
6 mi

Hourly Forecast

Date & Time Fri, Oct 15
6:00 PM
Fri, Oct 15
7:00 PM
Fri, Oct 15
8:00 PM
Fri, Oct 15
9:00 PM
Fri, Oct 15
10:00 PM
Fri, Oct 15
11:00 PM
Sat, Oct 16
12:00 AM
Sat, Oct 16
1:00 AM
Sat, Oct 16
2:00 AM
Sat, Oct 16
3:00 AM
Sat, Oct 16
4:00 AM
Sat, Oct 16
5:00 AM
Sat, Oct 16
6:00 AM
Sat, Oct 16
7:00 AM
Sat, Oct 16
8:00 AM
Sat, Oct 16
9:00 AM
Sat, Oct 16
10:00 AM
Sat, Oct 16
11:00 AM
Sat, Oct 16
12:00 PM
Sat, Oct 16
1:00 PM
Sat, Oct 16
2:00 PM
Sat, Oct 16
3:00 PM
Sat, Oct 16
4:00 PM
Sat, Oct 16
5:00 PM
Sat, Oct 16
6:00 PM
Sat, Oct 16
7:00 PM
Sat, Oct 16
8:00 PM
Sat, Oct 16
9:00 PM
Sat, Oct 16
10:00 PM
Sat, Oct 16
11:00 PM
Sun, Oct 17
12:00 AM
Sun, Oct 17
1:00 AM
Sun, Oct 17
2:00 AM
Sun, Oct 17
3:00 AM
Sun, Oct 17
4:00 AM
Sun, Oct 17
5:00 AM
Sun, Oct 17
6:00 AM
Sun, Oct 17
7:00 AM
Sun, Oct 17
8:00 AM
Sun, Oct 17
9:00 AM
Sun, Oct 17
10:00 AM
Sun, Oct 17
11:00 AM
Sun, Oct 17
12:00 PM
Sun, Oct 17
1:00 PM
Sun, Oct 17
2:00 PM
Sun, Oct 17
3:00 PM
Sun, Oct 17
4:00 PM
Sun, Oct 17
5:00 PM
Condition
Clouds

Clouds

Clouds

Clouds

Clouds

Clouds

Clouds

Clouds

Clouds

Clouds

Clouds

Clouds

Clouds

Clouds

Clear

Clear

Clear

Clear

Clear

Clear

Clear

Clear

Clear

Clear

Clear

Clear

Clear

Clear

Clear

Clear

Clear

Clear

Clear

Clear

Clear

Clear

Clear

Clouds

Clouds

Clouds

Clouds

Clouds

Clouds

Clouds

Clear

Clear

Clear

Clear
Temperature 50°F51°F50°F48°F45°F42°F40°F39°F39°F39°F38°F38°F37°F37°F38°F43°F48°F52°F56°F58°F59°F60°F60°F59°F55°F49°F47°F46°F45°F45°F44°F44°F43°F43°F42°F41°F41°F41°F43°F48°F53°F58°F62°F65°F67°F68°F67°F65°F
Feels Like 48°F48°F48°F45°F42°F39°F35°F34°F34°F34°F33°F32°F31°F31°F32°F37°F43°F49°F52°F55°F56°F57°F57°F56°F51°F46°F44°F43°F42°F42°F41°F41°F40°F40°F40°F39°F38°F39°F40°F46°F51°F56°F60°F63°F65°F65°F65°F63°F
Cloudiness 79%90%92%91%76%62%47%42%19%21%21%19%16%14%0%0%0%0%0%0%0%0%0%0%0%0%0%0%0%0%0%0%0%0%0%0%2%18%100%100%100%98%80%68%1%1%0%0%
Visibility 6 mi6 mi6 mi6 mi6 mi6 mi6 mi6 mi6 mi6 mi6 mi6 mi6 mi6 mi6 mi6 mi6 mi6 mi6 mi6 mi6 mi6 mi6 mi6 mi6 mi6 mi6 mi6 mi6 mi6 mi6 mi6 mi6 mi6 mi6 mi6 mi6 mi6 mi6 mi6 mi6 mi6 mi6 mi6 mi6 mi6 mi6 mi6 mi
Precipitation 0%0%0%0%0%0%0%0%0%0%0%0%0%0%0%0%0%0%0%0%0%0%0%0%0%0%0%0%0%0%0%0%0%0%0%0%0%0%0%0%0%0%0%0%0%0%0%0%
Humidity 56%57%58%62%67%73%79%80%81%82%82%81%81%79%76%61%48%41%34%30%27%25%25%28%34%42%45%47%49%50%52%55%57%60%64%67%71%72%71%63%54%47%40%35%31%29%29%33%
Dew Point 35°F36°F36°F35°F35°F34°F33°F33°F33°F33°F32°F32°F31°F30°F30°F30°F29°F29°F27°F26°F25°F24°F24°F26°F26°F26°F27°F26°F26°F26°F27°F28°F28°F29°F30°F31°F32°F32°F34°F35°F36°F37°F37°F36°F35°F34°F33°F35°F
Pressure 29.94"29.94"29.94"29.94"29.97"29.97"29.97"29.97"29.97"29.97"29.97"30"30.03"30.03"30.06"30.06"30.06"30.03"30.03"30.03"30"30"30"30"30.03"30.06"30.06"30.06"30.06"30.06"30.06"30.06"30.09"30.09"30.09"30.09"30.09"30.09"30.12"30.12"30.09"30.09"30.06"30.03"30.03"30"30"30"
Wind Speed 14.2 mph12 mph8.8 mph5.9 mph5.5 mph5.5 mph6.1 mph6.8 mph6.9 mph6.7 mph6.6 mph6.9 mph7.4 mph7.9 mph8 mph10.3 mph13.3 mph14.3 mph15.4 mph15.6 mph15.6 mph15.3 mph14.9 mph12.2 mph9.2 mph7.6 mph7.2 mph6.6 mph5.9 mph5.5 mph5.3 mph5.1 mph4.5 mph4.4 mph3.9 mph4.1 mph4 mph4 mph4.2 mph4.2 mph6.7 mph8 mph8.8 mph9.2 mph9.2 mph9 mph8.7 mph6.4 mph
Wind
Direction
284°
WNW
283°
WNW
290°
WNW
276°
W
273°
W
267°
W
262°
W
264°
W
269°
W
270°
W
270°
W
268°
W
270°
W
273°
W
273°
W
283°
WNW
289°
WNW
290°
WNW
293°
WNW
294°
WNW
296°
WNW
295°
WNW
294°
WNW
291°
WNW
282°
WNW
270°
W
272°
W
273°
W
269°
W
267°
W
267°
W
268°
W
276°
W
267°
W
263°
W
262°
W
264°
W
264°
W
259°
W
262°
W
277°
W
284°
WNW
286°
WNW
288°
WNW
292°
WNW
296°
WNW
299°
WNW
304°
NW

Daily Forecast

Date High Low Precip. Humidity
Today
Oct 15

Clouds
57 °F
42 °F
0%
41%
Saturday
Oct 16

Clear
60 °F
37 °F
0%
34%
Sunday
Oct 17

Clouds
67 °F
41 °F
0%
35%
Monday
Oct 18

Clear
75 °F
46 °F
0%
31%
Tuesday
Oct 19

Clouds
75 °F
51 °F
0%
36%
Wednesday
Oct 20

Rain
72 °F
53 °F
88%
55%
Thursday
Oct 21

Rain
57 °F
39 °F
100%
86%
Friday
Oct 22

Clear
49 °F
31 °F
0%
29%
Saturday
Oct 23

Clouds
51 °F
33 °F
0%
32%
Sunday
Oct 24

Clear
48 °F
28 °F
0%
33%
Monday
Oct 25

Clouds
55 °F
31 °F
0%
30%
Tuesday
Oct 26

Rain
54 °F
36 °F
26%
59%
Wednesday
Oct 27

Rain
60 °F
46 °F
100%
89%
Thursday
Oct 28

Clear
62 °F
46 °F
0%
31%
Friday
Oct 29

Rain
63 °F
40 °F
97%
32%
Saturday
Oct 30

Rain
65 °F
50 °F
100%
95%

Temperature 8-14 Day Outlook



Precipitation 8-14 Day Outlook




Quick Links
Lake Pepin News
Lake Pepin Photos
Lake Pepin Videos




About Us
Contact Us
Site Map
Search Site
Advertise With Us
   
Pepin.LakesOnline.com
THE LAKE PEPIN WEBSITE

Copyright 2021, Lakes Online
Privacy    |    Legal